Regional Weather Roundup
Issued by NWS

Home | Current Version | Previous Version | Graphics & Text | Print | Product List | Glossary On
Versions: 1 2 3 4 5 6 7 8 9 10 11 12 13 14 15 16 17 18 19 20 21 22 23 24 25 26 27 28 29 30 31 32 33 34 35 36 37 38 39 40 41 42 43 44 45 46 47 48 49 50
000
ASUS43 KDTX 191701
RWRMI
MICHIGAN HOURLY REGIONAL WEATHER ROUNDUP
NATIONAL WEATHER SERVICE DETROIT/PONTIAC MI
100 PM EDT SUN APR 19 2015

NOTE: "FAIR" INDICATES FEW OR NO CLOUDS BELOW 12,000 FEET WITH NO
SIGNIFICANT WEATHER AND/OR OBSTRUCTION TO VISIBILITY.

MIZ047>049-052>055-059>063-066>070-074>076-081>083-191800-
SOUTHEAST LOWER MICHIGAN

CITY           SKY/WX    TMP DP  RH WIND       PRES   REMARKS
ADRIAN         MOSUNNY   63  36  36 E16       29.86F
ALMA           MOSUNNY   60  30  32 E13G23    29.90F
ANN ARBOR      SUNNY     63  37  38 E10G22    29.87F
BAD AXE        PTSUNNY   53  31  43 E10G24    29.99F
CARO           PTSUNNY   58  34  40 E9G18     29.93F
DETROIT CITY   FAIR      55  33  43 E18G28    29.93F
DETROIT        PTSUNNY   61  34  36 NE15G23   29.91F
FLINT          MOSUNNY   63  32  31 E13G22    29.90F
GROSSE ILE     PTSUNNY   57  34  41 E17G23    29.90F
HILLSDALE      MOSUNNY   65  34  31 E21       29.82F
HOWELL         SUNNY     62  31  30 E10       29.87F

CITY           SKY/WX    TMP DP  RH WIND       PRES   REMARKS
JACKSON        PTSUNNY   64  34  32 E15       29.83F
LAMBERTVILLE   CLOUDY    50  36  57 E13G23    29.87F
LANSING        MOSUNNY   64  31  28 E16       29.86F
LAPEER         FAIR      59  31  34 E13       29.92F
MASON          MOSUNNY   62  31  30 E12G18    29.85F
MONROE         MOSUNNY   57  34  41 E16G22    29.87F
PONTIAC        PTSUNNY   60  32  34 E17G24    29.90F
PORT HOPE        N/A     45  35  68 E9        30.01F
PORT HURON     MOSUNNY   61  36  39 E15       29.94F
TRI CITIES     PTSUNNY   60  29  30 E14G24    29.93F
TROY           SUNNY     59  30  33 E21       29.94F
SAGINAW HB     PTSUNNY   61  30  31 E10G21    29.92F
$$
MIZ043>046-050>051-056>058-064>065-071>073-077>080-191800-
SOUTHWEST LOWER MICHIGAN

CITY           SKY/WX    TMP DP  RH WIND       PRES   REMARKS
BATTLE CREEK   MOSUNNY   67  32  27 E14       29.81F
BENTON HARBOR  MOSUNNY   71  38  29 E22G30    29.74F
BIG RAPIDS     MOSUNNY   60  23  23 SE13G26   29.87F
COLDWATER      PTSUNNY   66  33  28 E16G24    29.79F
FREMONT        FAIR      64  21  19 E14G20    29.83F
HOLLAND        SUNNY     69  36  29 E16G23    29.79F
GRAND RAPIDS   PTSUNNY   64  32  30 E20       29.83F
IONIA          FAIR      64  31  28 E14       29.85F
KALAMAZOO      MOSUNNY   69  32  25 E8G18     29.79F
LUDINGTON      PTSUNNY   67  23  18 E18G24    29.82F
MARSHALL       PTSUNNY   68  33  27 E8G18     29.81F
MOUNT PLEASANT PTSUNNY   61  28  28 E15G22    29.90F
MUSKEGON       MOSUNNY   66  30  26 E18       29.80F
SOUTH HAVEN    MOSUNNY   68  28  22 E15       29.76F
$$
MIZ016>042-191800-
NORTHERN LOWER MICHIGAN

CITY           SKY/WX    TMP DP  RH WIND       PRES   REMARKS
ALPENA         SUNNY     46  31  55 E18G26    30.05F
BEAVER ISLAND  PTSUNNY   44  32  64 E15G21    29.93F
BELLAIRE       SUNNY     62  23  22 SE16G25   29.91F
CADILLAC       MOSUNNY   61  26  26 SE17G25   29.89F
CHARLEVOIX     SUNNY     59  28  30 E18       29.93F
FRANKFORT      PTSUNNY   66  16  14 SE15G25   29.83F
GAYLORD        SUNNY     56  24  29 SE15G25   29.94F
GRAYLING       SUNNY     59  23  25 E20G26    29.95F
HARBOR SPRINGS SUNNY     59  29  31 E16       29.94F
HOUGHTON LAKE  MOSUNNY   58  26  29 E22G32    29.95F
MANISTEE       PTSUNNY   64  28  25 SE14G23   29.84F
OSCODA         SUNNY     46  32  58 E9        30.04F
PELLSTON       MOSUNNY   57  29  34 SE21G28   29.96F
ROGERS CITY    SUNNY     45  35  67 E18       30.05F
TRAVERSE CITY  MOSUNNY   61  27  27 SE12G26   29.88F
$$
MIZ007>008-015-191800-
EASTERN UPPER MICHIGAN

CITY           SKY/WX    TMP DP  RH WIND       PRES   REMARKS
KINROSS        MOSUNNY   45  28  53 E24G30    30.02F
MACKINAC ISLAN MOSUNNY   38  31  75 E17G30    30.00F WCI  29
NEWBERRY       MOSUNNY   50  30  46 SE26      29.96F
S. S. MARIE    MOSUNNY   45  27  49 E17G29    30.03F
$$
MIZ004>006-011>014-085-191800-
CENTRAL UPPER MICHIGAN

CITY           SKY/WX    TMP DP  RH WIND       PRES   REMARKS
MANISTIQUE     MOSUNNY   48  32  53 E18G24    29.93F
ESCANABA       CLOUDY    45  28  53 E16       29.89F
MENOMINEE      CLOUDY    43  32  65 E9        29.87F
SAWYER-GWINN   PTSUNNY  N/A N/A N/A S20G26    29.87F
$$
MIZ001>003-009>011-084-191800-
WESTERN UPPER MICHIGAN

CITY           SKY/WX    TMP DP  RH WIND       PRES   REMARKS
IRON MOUNTAIN  PTSUNNY   51  29  42 SE15G25   29.83F
HOUGHTON       CLOUDY    38  33  82 E16       29.77F WCI  29
COPPER HARBOR    N/A     41  30  65 S12G24    29.83F
IRONWOOD       CLOUDY    52  34  50 S8        29.68F
$$

ABBREVIATIONS USED IN REMARKS
   TC - TEMPERATURE IN CELSIUS
  WCI - WIND CHILL INDEX
   HX - HEAT INDEX
  VSB - VISIBILITY



USA.gov is the U.S. government's official web portal to all federal, state and local government web resources and services.